QPF
0.06 0.05 0.01 0.00 0.00 0.00 0.00 0.00 0.00 0.00 0.00 0.00 0.00 0.00 0.00 0.00 0.00 0.00 0.01 0.04 0.05 0.02 0.00 0.00 0.00 0.00 0.00 0.00 0.00 0.00 0.00 0.00 0.00
0.11 0.02 0.01 0.00 0.00 0.00 0.00 0.00 0.00 0.00 0.00 0.00 0.00 0.00 0.00 0.00 0.00 0.01 0.03 0.06 0.03 0.01 0.00 0.00 0.00 0.00 0.00 0.00 0.00 0.00 0.00 0.00 0.01
0.03 0.02 0.01 0.00 0.00 0.00 0.00 0.00 0.00 0.00 0.00 0.00 0.00 0.00 0.00 0.00 0.00 0.01 0.02 0.06 0.04 0.01 0.00 0.00 0.00 0.00 0.00 0.00 0.00 0.00 0.00 0.01 0.02
0.01 0.01 0.01 0.00 0.00 0.00 0.00 0.00 0.00 0.00 0.00 0.00 0.00 0.00 0.00 0.00 0.00 0.00 0.02 0.04 0.03 0.00 0.00 0.00 0.00 0.00 0.00 0.00 0.00 0.00 0.01 0.01 0.00
0.00 0.00 0.01 0.00 0.01 0.00 0.00 0.00 0.00 0.00 0.00 0.00 0.00 0.00 0.00 0.00 0.00 0.00 0.00 0.03 0.02 0.00 0.00 0.00 0.00 0.00 0.00 0.00 0.00 0.01 0.02 0.01 0.00
0.00 0.00 0.00 0.01 0.00 0.00 0.00 0.00 0.00 0.00 0.00 0.00 0.00 0.00 0.00 0.00 0.00 0.00 0.00 0.04 0.01 0.00 0.00 0.00 0.00 0.00 0.00 0.00 0.01 0.02 0.01 0.00 0.00
0.00 0.00 0.00 0.01 0.01 0.00 0.00 0.00 0.00 0.00 0.00 0.00 0.00 0.00 0.00 0.00 0.00 0.00 0.00 0.01 0.01 0.00 0.00 0.00 0.00 0.00 0.00 0.01 0.02 0.00 0.00 0.00 0.00
0.00 0.00 0.00 0.00 0.00 0.00 0.00 0.00 0.00 0.00 0.00 0.00 0.00 0.00 0.00 0.00 0.00 0.00 0.00 0.02 0.01 0.00 0.00 0.00 0.00 0.00 0.01 0.03 0.01 0.00 0.00 0.00 0.00
0.00 0.00 0.00 0.00 0.00 0.00 0.00 0.00 0.00 0.00 0.00 0.00 0.00 0.00 0.00 0.00 0.00 0.00 0.01 0.06 0.03 0.00 0.00 0.00 0.00 0.00 0.02 0.01 0.00 0.00 0.00 0.00 0.00
0.00 0.00 0.01 0.00 0.00 0.00 0.00 0.00 0.00 0.00 0.00 0.00 0.00 0.00 0.00 0.00 0.00 0.00 0.01 0.06 0.03 0.00 0.00 0.00 0.00 0.02 0.02 0.00 0.00 0.00 0.00 0.00 0.00
0.00 0.01 0.02 0.01 0.00 0.00 0.00 0.00 0.00 0.00 0.00 0.00 0.00 0.00 0.00 0.01 0.02 0.01 0.01 0.00 0.02 0.00 0.00 0.00 0.01 0.03 0.01 0.00 0.00 0.00 0.00 0.00 0.00
0.00 0.00 0.01 0.00 0.00 0.00 0.00 0.00 0.00 0.00 0.00 0.00 0.00 0.00 0.00 0.01 0.01 0.00 0.00 0.00 0.00 0.00 0.00 0.00 0.01 0.04 0.01 0.00 0.00 0.00 0.00 0.00 0.00
0.00 0.00 0.00 0.00 0.00 0.00 0.00 0.00 0.00 0.00 0.00 0.00 0.00 0.00 0.00 0.00 0.01 0.02 0.00 0.00 0.00 0.00 0.00 0.00 0.03 0.04 0.00 0.00 0.00 0.00 0.00 0.00 0.00
0.00 0.00 0.00 0.00 0.00 0.00 0.00 0.00 0.00 0.00 0.00 0.00 0.00 0.00 0.00 0.00 0.00 0.03 0.03 0.00 0.00 0.00 0.00 0.00 0.01 0.03 0.01 0.00 0.00 0.00 0.00 0.00 0.00
0.00 0.00 0.00 0.00 0.00 0.00 0.00 0.00 0.00 0.00 0.00 0.00 0.00 0.01 0.01 0.00 0.00 0.01 0.03 0.01 0.00 0.00 0.00 0.00 0.00 0.01 0.00 0.00 0.00 0.00 0.00 0.00 0.00
0.00 0.00 0.00 0.00 0.00 0.00 0.00 0.00 0.00 0.00 0.00 0.00 0.00 0.01 0.00 0.00 0.00 0.01 0.02 0.03 0.01 0.00 0.00 0.00 0.01 0.00 0.00 0.00 0.00 0.00 0.00 0.00 0.00
0.00 0.00 0.00 0.00 0.00 0.00 0.00 0.00 0.00 0.00 0.00 0.00 0.00 0.00 0.00 0.00 0.00 0.00 0.01 0.01 0.02 0.00 0.00 0.00 0.01 0.00 0.00 0.00 0.00 0.00 0.00 0.00 0.00
0.00 0.00 0.00 0.00 0.00 0.00 0.00 0.00 0.00 0.00 0.00 0.00 0.00 0.00 0.00 0.00 0.00 0.00 0.00 0.00 0.01 0.01 0.00 0.00 0.00 0.00 0.02 0.01 0.00 0.00 0.00 0.00 0.00
0.00 0.00 0.00 0.00 0.00 0.00 0.00 0.00 0.00 0.00 0.00 0.00 0.00 0.00 0.00 0.00 0.00 0.00 0.00 0.00 0.00 0.01 0.00 0.00 0.00 0.00 0.03 0.02 0.00 0.00 0.00 0.00 0.00
0.00 0.00 0.00 0.00 0.00 0.00 0.00 0.00 0.00 0.00 0.00 0.00 0.00 0.00 0.00 0.00 0.00 0.00 0.00 0.00 0.00 0.00 0.00 0.00 0.00 0.00 0.01 0.01 0.00 0.00 0.00 0.00 0.00
MSLP
1017.22 1017.58 1017.86 1018.17 1018.48 1018.76 1019.09 1019.38 1019.53 1019.75 1019.90 1020.02 1020.03 1019.88 1019.81 1019.68 1019.41 1019.70 1020.19 1020.61 1020.81 1020.93 1021.21 1021.41 1021.51 1021.69 1021.85 1022.01 1022.06 1022.13 1022.11 1022.08 1022.16
1017.55 1017.91 1018.20 1018.56 1018.84 1019.05 1019.32 1019.59 1019.84 1020.05 1020.24 1020.39 1020.38 1020.16 1020.09 1020.01 1020.02 1020.19 1020.73 1021.05 1021.11 1021.36 1021.61 1021.90 1021.99 1022.16 1022.26 1022.41 1022.47 1022.56 1022.53 1022.53 1022.69
1017.88 1018.25 1018.53 1018.86 1019.17 1019.42 1019.59 1019.78 1020.06 1020.35 1020.59 1020.76 1020.80 1020.53 1020.35 1020.39 1020.62 1020.83 1021.21 1021.47 1021.51 1021.84 1022.11 1022.32 1022.43 1022.56 1022.71 1022.86 1022.91 1022.94 1023.14 1023.10 1023.32
1018.22 1018.52 1018.90 1019.16 1019.41 1019.72 1019.87 1020.03 1020.31 1020.57 1020.88 1021.09 1021.17 1021.05 1020.79 1020.60 1021.11 1021.21 1021.63 1021.90 1021.95 1022.22 1022.54 1022.69 1022.82 1023.01 1023.15 1023.29 1023.37 1023.43 1023.58 1023.72 1023.96
1018.46 1018.78 1019.11 1019.40 1019.66 1019.98 1020.19 1020.37 1020.59 1020.88 1021.17 1021.39 1021.50 1021.38 1021.00 1020.45 1021.35 1021.59 1022.03 1022.28 1022.32 1022.61 1022.86 1023.02 1023.24 1023.40 1023.60 1023.68 1023.74 1024.03 1024.06 1024.41 1024.58
1018.63 1018.71 1019.19 1019.53 1019.78 1020.15 1020.47 1020.64 1020.88 1021.16 1021.50 1021.67 1021.71 1021.63 1020.98 1021.00 1021.18 1021.70 1022.29 1022.57 1022.64 1022.96 1023.22 1023.41 1023.60 1023.75 1023.98 1024.16 1024.24 1024.45 1024.67 1024.92 1025.15
1018.02 1018.67 1019.25 1019.62 1019.87 1020.33 1020.68 1020.90 1021.10 1021.12 1021.22 1021.61 1021.80 1021.37 1021.04 1021.12 1021.27 1021.88 1022.47 1022.85 1022.94 1023.31 1023.57 1023.79 1023.97 1024.08 1024.29 1024.54 1024.68 1024.91 1025.22 1025.43 1025.55
1018.03 1018.83 1019.43 1019.76 1020.05 1020.35 1020.76 1021.06 1020.94 1020.68 1020.62 1021.20 1020.94 1020.84 1020.77 1021.01 1021.28 1022.20 1022.58 1022.83 1023.17 1023.58 1023.84 1024.07 1024.31 1024.47 1024.67 1024.85 1025.13 1025.43 1025.71 1025.88 1026.04
1017.71 1018.50 1019.29 1019.41 1019.67 1019.85 1020.25 1020.49 1020.40 1020.34 1020.58 1020.80 1020.90 1020.70 1020.83 1020.86 1021.31 1022.40 1022.87 1023.12 1023.35 1023.74 1024.06 1024.37 1024.57 1024.81 1025.00 1025.22 1025.56 1025.93 1026.08 1026.18 1026.52
1017.55 1018.06 1018.66 1019.11 1019.17 1019.46 1019.91 1020.00 1020.21 1020.47 1020.60 1020.81 1020.93 1020.87 1021.17 1021.18 1021.67 1022.33 1023.08 1023.43 1023.61 1023.91 1024.24 1024.54 1024.71 1025.04 1025.27 1025.60 1025.94 1026.22 1026.44 1026.61 1026.76
1017.29 1018.21 1018.70 1019.04 1019.29 1019.52 1019.79 1019.97 1020.24 1020.45 1020.62 1020.87 1021.02 1021.33 1021.67 1021.97 1022.22 1022.75 1023.37 1023.67 1023.88 1024.14 1024.36 1024.62 1024.79 1025.18 1025.56 1025.92 1026.27 1026.49 1026.69 1027.01 1027.20
1017.30 1018.05 1018.73 1019.27 1019.92 1019.57 1019.83 1019.99 1020.24 1020.46 1020.65 1020.91 1021.05 1021.30 1021.86 1022.25 1022.87 1023.36 1023.64 1023.94 1024.05 1024.19 1024.46 1024.68 1024.93 1025.34 1025.72 1026.16 1026.49 1026.74 1026.96 1027.29 1027.56
1017.24 1017.96 1018.52 1019.59 1019.95 1019.94 1019.82 1020.06 1020.29 1020.56 1020.93 1021.18 1021.40 1021.48 1021.88 1022.30 1023.24 1023.58 1023.88 1024.01 1024.19 1024.38 1024.58 1024.83 1025.13 1025.49 1025.83 1026.31 1026.67 1026.94 1027.18 1027.44 1027.78
1016.96 1017.81 1018.82 1019.36 1019.83 1020.06 1020.10 1020.38 1020.45 1020.64 1021.13 1021.55 1021.92 1021.92 1022.07 1022.26 1022.86 1023.42 1023.67 1023.99 1024.16 1024.33 1024.65 1024.99 1025.42 1025.65 1025.89 1026.20 1026.68 1027.05 1027.39 1027.62 1027.86
1016.67 1017.44 1018.32 1018.76 1019.43 1019.88 1020.02 1020.36 1020.54 1020.83 1021.22 1022.14 1022.63 1022.60 1022.48 1022.40 1022.65 1023.01 1023.48 1023.63 1024.12 1024.18 1024.55 1025.05 1025.51 1025.89 1026.02 1026.31 1026.68 1027.02 1027.46 1027.73 1027.97
1016.32 1016.85 1017.51 1018.23 1018.81 1019.37 1019.89 1020.24 1020.54 1021.02 1021.38 1022.34 1022.91 1023.13 1023.08 1023.07 1022.92 1023.01 1023.41 1023.49 1023.78 1024.29 1024.28 1024.72 1025.21 1025.74 1026.04 1026.29 1026.64 1026.96 1027.36 1027.71 1027.99
1015.88 1016.27 1017.04 1017.79 1018.35 1018.97 1019.59 1019.99 1020.32 1020.79 1021.24 1021.60 1022.32 1023.02 1023.49 1023.40 1023.40 1023.49 1023.68 1023.79 1023.99 1024.23 1024.30 1024.33 1024.85 1025.15 1025.81 1026.13 1026.44 1026.85 1027.24 1027.56 1027.90
1015.64 1015.85 1016.65 1017.58 1018.13 1018.46 1019.11 1019.67 1020.03 1020.45 1020.99 1021.06 1021.47 1022.05 1022.10 1022.69 1023.20 1023.48 1023.79 1024.03 1024.15 1024.33 1024.32 1024.60 1024.77 1025.06 1025.44 1025.99 1026.52 1026.78 1027.05 1027.36 1027.67
1015.23 1015.42 1016.23 1017.02 1017.60 1017.98 1018.64 1019.31 1019.76 1020.12 1020.59 1021.15 1021.41 1021.42 1021.36 1021.56 1022.29 1022.65 1023.25 1023.89 1024.08 1024.29 1024.50 1024.62 1024.89 1025.09 1025.30 1025.73 1026.11 1026.67 1026.92 1027.16 1027.46
1014.89 1015.02 1015.70 1016.45 1017.21 1017.63 1018.29 1018.88 1019.38 1019.65 1020.12 1020.52 1021.00 1021.49 1021.49 1021.33 1021.40 1021.80 1022.62 1023.38 1023.86 1023.91 1023.97 1024.28 1024.79 1025.00 1025.29 1025.58 1025.94 1026.35 1026.65 1026.91 1027.08
Thickness
5721 5719 5719 5719 5718 5717 5717 5716 5716 5715 5715 5715 5715 5716 5717 5717 5719 5717 5713 5710 5709 5708 5706 5704 5703 5701 5698 5696 5694 5693 5692 5690 5688
5716 5716 5715 5715 5714 5714 5713 5713 5713 5713 5712 5711 5712 5714 5715 5714 5715 5713 5709 5706 5706 5705 5703 5701 5699 5697 5695 5692 5691 5689 5688 5686 5684
5712 5711 5711 5711 5711 5710 5710 5711 5710 5709 5708 5708 5708 5711 5713 5711 5710 5708 5704 5702 5702 5700 5699 5697 5695 5694 5691 5689 5688 5686 5683 5682 5680
5707 5707 5706 5706 5707 5706 5707 5707 5706 5706 5705 5704 5705 5706 5708 5709 5705 5704 5700 5698 5698 5697 5694 5693 5692 5690 5688 5686 5684 5682 5680 5678 5675
5702 5702 5701 5702 5702 5702 5702 5702 5702 5702 5701 5700 5701 5702 5705 5708 5702 5700 5697 5695 5694 5692 5690 5690 5688 5687 5684 5683 5681 5678 5677 5673 5671
5699 5699 5699 5698 5698 5698 5698 5698 5698 5698 5697 5697 5697 5698 5702 5702 5701 5698 5694 5691 5690 5688 5687 5686 5684 5683 5680 5678 5677 5675 5672 5669 5666
5701 5698 5696 5695 5695 5694 5693 5693 5693 5695 5695 5693 5694 5697 5699 5699 5699 5695 5691 5687 5686 5683 5682 5681 5680 5679 5676 5675 5673 5671 5667 5665 5663
5698 5694 5691 5690 5690 5690 5689 5689 5690 5693 5695 5693 5696 5698 5699 5698 5696 5691 5688 5685 5683 5679 5678 5676 5675 5673 5672 5671 5668 5666 5663 5661 5659
5697 5693 5689 5689 5689 5690 5689 5689 5691 5693 5692 5692 5693 5696 5695 5696 5693 5687 5683 5681 5679 5676 5674 5672 5670 5668 5667 5665 5662 5660 5658 5657 5654
5694 5692 5689 5688 5689 5689 5687 5689 5689 5689 5689 5689 5689 5691 5690 5691 5688 5683 5679 5676 5674 5672 5670 5668 5666 5663 5661 5659 5657 5655 5654 5652 5650
5690 5685 5684 5684 5684 5684 5684 5684 5684 5685 5685 5685 5685 5684 5683 5682 5681 5678 5674 5671 5670 5668 5666 5664 5663 5659 5656 5653 5651 5650 5649 5646 5644
5684 5681 5678 5677 5675 5679 5679 5679 5679 5680 5680 5680 5681 5680 5677 5676 5672 5670 5669 5666 5665 5664 5661 5660 5658 5654 5651 5648 5646 5644 5643 5640 5638
5677 5675 5674 5669 5670 5672 5674 5674 5675 5675 5674 5673 5673 5674 5672 5670 5666 5663 5663 5661 5660 5659 5656 5655 5653 5650 5646 5643 5641 5639 5637 5634 5632
5672 5669 5665 5664 5664 5665 5667 5666 5668 5669 5667 5665 5664 5665 5665 5665 5661 5659 5658 5656 5655 5654 5652 5649 5647 5644 5641 5639 5637 5634 5630 5628 5626
5666 5664 5662 5662 5660 5660 5662 5661 5662 5662 5662 5655 5652 5654 5656 5658 5657 5655 5654 5653 5650 5650 5647 5644 5640 5638 5635 5634 5632 5629 5625 5622 5620
5661 5661 5660 5658 5658 5657 5655 5656 5655 5654 5655 5647 5643 5643 5646 5648 5650 5649 5648 5648 5647 5643 5643 5639 5636 5634 5630 5628 5626 5623 5620 5617 5614
5656 5658 5656 5653 5653 5652 5651 5650 5650 5649 5649 5645 5641 5635 5636 5639 5640 5640 5639 5639 5639 5637 5637 5635 5633 5631 5626 5622 5620 5617 5614 5611 5608
5648 5651 5649 5646 5646 5649 5647 5645 5646 5644 5644 5647 5642 5636 5638 5637 5635 5633 5632 5631 5630 5630 5630 5629 5627 5625 5622 5618 5614 5612 5609 5605 5603
5641 5644 5643 5641 5641 5645 5644 5641 5640 5640 5638 5638 5638 5639 5641 5636 5630 5633 5629 5625 5624 5624 5624 5622 5620 5619 5616 5612 5610 5606 5603 5599 5596
5634 5638 5638 5637 5635 5637 5636 5635 5635 5636 5635 5634 5632 5629 5631 5635 5633 5627 5624 5621 5618 5619 5620 5618 5615 5613 5610 5606 5603 5600 5597 5593 5590